CAPE
3 2 6 12 15 28 7 7 4 0 5 10 1 2 1 2 17 68 149 133 95 199 160 36 6 6 4
0 3 6 12 13 25 30 19 0 0 0 0 0 0 6 0 12 27 29 66 101 120 63 7 14 6 4
9 3 3 7 23 41 25 37 2 0 0 0 0 0 2 1 9 9 7 26 15 2 1 3 13 9 5
4 9 10 10 18 14 11 0 0 0 0 0 0 0 0 0 6 3 3 1 1 0 2 1 1 1 6
5 9 5 10 16 18 16 21 4 0 0 0 0 1 2 1 0 9 0 1 0 4 4 3 2 3 5
8 13 10 8 13 12 8 4 1 0 1 0 0 0 1 2 3 0 2 1 4 5 5 4 3 3 1
23 16 11 7 9 6 1 3 6 2 0 0 0 0 0 0 1 1 2 3 5 6 5 5 6 5 5
10 21 14 10 13 17 12 5 2 1 0 1 0 0 0 0 3 3 4 5 5 4 3 7 7 9 9
7 9 11 4 4 5 6 3 0 2 0 0 0 1 2 0 1 4 4 5 6 6 6 6 11 10 11
0 1 2 1 6 1 2 2 2 2 0 1 0 0 0 0 0 1 2 5 5 5 9 17 13 5 1
2 2 2 0 1 0 0 2 2 2 0 2 1 1 0 0 0 0 0 0 1 6 13 12 12 2 0
2 2 3 1 0 0 0 1 1 1 1 0 0 0 0 1 0 0 0 0 0 0 0 1 14 6 0
3 2 6 0 0 0 0 1 0 0 0 1 0 1 0 0 0 0 0 0 0 0 0 0 0 0 0
2 2 1 1 0 0 0 0 0 0 0 0 0 0 0 0 0 0 0 0 0 0 0 0 0 0 0
1 1 0 1 0 0 0 0 0 0 0 0 0 0 0 0 0 0 0 0 0 0 0 0 0 0 0
0 0 0 0 0 0 0 0 0 0 0 0 0 0 0 0 0 0 0 0 0 0 0 0 0 0 0
0 1 0 0 0 0 0 0 0 0 0 0 0 0 0 0 0 0 0 0 0 0 0 0 0 0 0
CIN
-1 -1 -1 -2 -4 -9 -37 -62 -61 0 -136 -135 -108 -92 -23 -92 -85 -58 -32 -17 -13 -3 0 -20 0 0 0
0 0 -1 -2 -5 -5 -12 -25 0 0 0 0 0 0 -62 -7 -35 -48 -51 -35 -15 -8 -3 -28 0 0 -1
0 -1 -4 -1 -1 -4 -13 -30 -31 0 0 0 0 0 -13 -21 -17 -40 -46 -26 -25 -27 0 0 0 0 -1
0 0 0 -1 0 -2 -3 0 -7 -16 0 0 0 0 0 0 -49 -7 -21 -9 0 0 0 0 0 0 0
0 0 0 0 0 0 0 0 -13 0 0 0 0 0 0 0 -2 -21 0 0 0 0 0 0 0 0 0
0 0 0 0 0 0 0 0 0 0 -29 0 0 0 0 0 0 0 0 0 0 0 0 0 0 0 0
0 0 0 0 0 0 0 0 -2 0 0 0 0 0 0 0 -1 0 0 0 0 0 0 0 0 0 0
0 0 0 0 0 0 0 0 0 0 0 0 0 0 0 0 0 0 0 0 0 0 0 0 0 0 0
0 0 0 0 0 0 0 0 0 0 0 0 0 0 0 0 0 0 0 0 0 0 0 0 0 0 -1
0 0 0 0 0 0 0 0 0 0 0 0 0 0 0 0 0 0 0 0 0 0 0 0 0 -3 -8
0 0 -2 0 0 0 0 0 0 0 0 0 0 0 0 0 0 0 0 0 0 0 0 -1 0 -13 0
0 0 0 0 0 0 0 0 0 0 0 0 0 0 0 0 0 0 0 0 0 0 0 -4 -1 0 0
0 0 0 -1 0 0 0 0 0 0 0 0 0 0 0 0 0 0 0 0 0 0 0 0 0 0 0
0 0 0 0 0 0 0 0 0 0 0 0 0 0 0 0 0 0 0 0 0 0 0 0 0 0 0
0 0 0 0 0 0 0 0 0 0 0 0 0 0 0 0 0 0 0 0 0 0 0 0 0 0 0
0 0 0 0 0 0 0 0 0 0 0 0 0 0 0 0 0 0 0 0 0 0 0 0 0 0 0
0 -1 0 0 0 0 0 0 0 0 0 0 0 0 0 0 0 0 0 0 0 0 0 0 0 0 0
Wind_Speed
54 52 52 51 52 49 47 46 48 48 46 46 43 40 39 38 36 38 36 33 32 30 29 28 26 24 22
58 55 51 50 49 48 46 43 45 47 48 47 46 45 45 44 46 36 36 34 33 30 30 30 27 25 23
57 53 54 52 52 48 45 42 40 42 46 48 49 48 47 51 51 41 36 36 31 31 29 27 26 27 25
54 55 53 53 51 51 51 41 43 42 43 45 47 45 45 50 49 39 34 33 30 29 30 28 27 27 26
55 53 55 55 52 52 53 52 49 42 45 45 44 42 45 40 39 38 34 32 31 27 27 25 26 23 26
54 55 56 53 52 51 53 53 56 41 40 45 41 44 42 40 39 30 32 29 27 26 24 21 23 22 22
53 53 55 52 52 53 51 50 52 51 45 50 43 47 43 38 35 26 20 24 24 21 20 20 18 19 19
48 49 52 54 51 51 54 53 52 49 41 53 41 44 37 34 25 16 17 18 19 20 19 20 18 17 18
50 52 51 55 51 49 48 47 51 49 36 38 37 36 35 26 21 13 16 16 14 17 18 16 15 14 14
49 48 47 47 46 42 43 46 45 48 33 30 32 30 33 29 18 15 14 17 15 15 12 12 12 13 14
47 47 46 43 42 41 40 39 44 46 41 32 31 31 30 24 20 18 16 16 13 12 11 10 10 12 13
44 45 45 44 43 42 40 39 39 41 43 32 34 22 26 23 19 17 14 12 11 11 10 11 10 9 9
42 43 43 43 42 40 36 33 31 30 30 25 20 17 19 17 14 11 8 12 12 10 9 11 11 11 12
40 38 38 37 35 33 32 30 26 25 21 17 12 10 8 6 3 6 7 10 10 11 11 14 13 11 11
36 35 36 34 31 27 29 25 18 17 14 10 7 6 5 3 2 4 6 10 8 9 12 12 12 11 11
32 34 33 29 28 27 25 20 11 10 9 8 7 5 6 8 7 3 8 9 8 7 10 11 13 12 11
30 31 29 28 25 23 21 13 11 8 8 10 11 10 7 8 12 11 8 9 8 10 11 13 14 13 11
Wind_Direction
304 305 303 302 300 298 296 293 291 288 285 284 282 281 278 274 267 266 263 256 254 250 241 241 242 248 254
304 305 304 303 302 300 298 296 293 290 288 287 285 282 281 277 272 266 263 258 249 241 240 241 239 246 250
304 304 303 304 303 301 300 299 295 294 292 289 286 285 281 278 274 270 263 255 242 240 241 241 247 252 259
306 304 303 302 301 301 298 299 299 297 294 292 290 288 282 281 275 267 259 251 242 239 241 242 243 257 258
306 305 302 300 300 299 295 295 294 296 294 294 292 290 288 285 281 272 254 250 252 245 244 242 253 249 258
304 303 301 301 299 298 296 295 291 298 296 290 295 288 290 285 283 272 256 247 244 246 243 245 249 249 259
302 301 300 300 299 297 296 294 292 292 294 291 291 287 287 286 280 271 253 245 240 246 241 248 247 254 255
303 303 301 299 298 297 294 293 292 291 293 287 291 288 287 285 276 255 249 245 247 250 248 249 255 251 250
303 302 301 297 296 298 295 295 290 290 294 291 292 289 282 286 271 258 249 249 254 256 252 245 240 240 250
305 305 304 300 297 303 301 296 295 290 293 288 292 284 278 274 277 270 261 256 264 255 236 228 228 249 258
301 303 302 303 303 305 305 301 289 277 282 285 285 275 277 279 278 272 261 265 253 242 232 228 234 255 261
298 299 298 300 302 304 303 289 278 266 268 278 276 280 272 273 281 264 262 255 243 244 251 261 257 256 264
297 296 298 293 289 289 285 280 291 301 296 291 291 281 277 278 267 249 221 248 252 252 265 268 272 279 280
293 288 289 285 277 274 271 281 305 309 313 312 304 297 302 294 226 180 242 260 259 268 274 278 284 287 283
290 289 288 283 274 263 274 299 327 323 316 328 338 346 353 331 289 242 263 287 275 279 286 290 293 292 292
288 290 287 278 271 270 268 296 348 337 338 309 303 306 294 308 312 327 306 311 311 301 304 300 300 302 299
290 289 283 278 269 261 269 309 323 310 298 278 274 278 320 327 320 325 330 322 318 310 308 308 307 308 304